Weather in Balykshi

Kazakhstan     47°04′52″N   51°52′50″E
temp.,
°C
wind,
m/s
gust,
m/s
humid.,
%
clouds,
%
prec.,
mm/h
press.,
hPa
HPBL,
m
26 february, fri
fri2623:00−13ssw6977100 0.0 1034392
02:00−12s61077100 0.0 1031290
05:00−10s81294100 1.4 1026410
08:00−8s91493100 1.5 1022419
11:00−3sw81193100 3.1 1020729
14:00−2w6782100 0.3 1018733
17:00−1w5782100 0.4 1018626
20:00−2wsw3394100 0.0 101890
27 february, sat
sat2723:00−2sw3496100 0.0 1018105
02:00−1ssw3598100 0.1 1016115
05:00+1sw599799 0.1 1015255
08:00+1wsw61198100 0.1 1013311
11:00+2wsw81398100 0.1 1013335
14:00+3wsw91495100 0.0 1013443
17:00+3wsw91595100 0.2 1012455
20:00+2wsw81396100 0.1 1012396
28 february, sun
sun2823:00+2sw81495100 0.2 1011410
02:00+2sw81596100 0.1 1010412
05:00+2wsw81496100 0.5 1010415
08:00+2sw81396100 0.4 1009385
11:00+2wsw71196100 0.6 1010362
14:00+3wsw71093100 0.0 1010438
17:00+4w6987100 0.1 1011572
20:00+2wnw5984100 0.0 1012383
1 march, mon
mon123:00+1wsw488399 0.0 1014256
02:00−1nw4684100 0.0 1015351
05:00−3wnw358660 0.0 1016142
08:00−4nw468442 0.0 1018460
11:00−3wnw566968 0.0 1020665
14:00−1wnw566096 0.0 1021823
17:00−1nw666296 0.0 1022846
20:00−4nw467368 0.0 1023399
2 march, tue
tue223:00−4wnw467434 0.0 1025522
02:00−5wnw46719 0.0 1026563
05:00−5wnw46729 0.0 1026523
08:00−6wnw47730 0.0 1026505
11:00−5wnw56610 0.0 1027758
14:00−2wnw674617 0.0 1027987
17:00−1w67479 0.0 10251041
20:00−3w34640 0.0 102595